Terminal Aerodrome Forecast
Issued by NWS Paducah, KY

Home | Current Version | Previous Version | Text Only | Print | Product List | Glossary On
Versions: 1 2 3 4 5 6 7 8 9 10 11 12 13 14 15 16 17 18
000
FTUS43 KPAH 061503 AAC
TAFEVV
TAF AMD
KEVV 061503Z 0615/0712 34006KT 6SM -DZ BR SCT006 OVC012
      TEMPO 0615/0617 5SM -RA BR BKN006
     FM061700 33008G16KT P6SM OVC022
     FM062000 31012G20KT P6SM OVC025
     FM070300 31008KT P6SM SCT030=

USA.gov is the U.S. government's official web portal to all federal, state and local government web resources and services.